Weather History for KHWO - December, 2012

Change the Weather History Date:

Sunday, December 9, 2012

  Actual Average (KFLL) Record (KFLL)
Temperature  
Mean Temperature 77 °F 72 °F  
Max Temperature 84 °F 79 °F 89 °F (1919)
Min Temperature 70 °F 65 °F 35 °F (1934)
Degree Days  
Heating Degree Days 0 1  
Month to date heating degree days 4  
Since 1 July heating degree days 6  
Cooling Degree Days 12 8  
Month to date cooling degree days 73  
Year to date cooling degree days 4586  
Growing Degree Days 27 (Base 50)    
Moisture  
Dew Point 72 °F    
Average Humidity 89    
Maximum Humidity 100    
Minimum Humidity 65    
Precipitation  
Precipitation 0.02 in 0.09 in 4.57 in (2002)
Month to date precipitation 0.77  
Year to date precipitation 60.49  
Snow  
Snow 0.00 in - - ()
Month to date snowfall  
Since 1 July snowfall  
Snow Depth -    
Sea Level Pressure  
Sea Level Pressure 30.05 in    
Wind  
Wind Speed 1 mph (SE)    
Max Wind Speed 10 mph    
Max Gust Speed -    
Visibility 7 miles    
Events      
T = Trace of Precipitation, MM = Missing Value Source: NWS Daily Summary

Daily Weather History Graph

Daily Weather History Graph

Search for Another Location

Airport or City:

Trip Planner

Search our weather history database for the weather conditions in past years. The results will help you decide how hot, cold, wet, or windy it might be!

Date:

Astronomy

Dec. 09, 2012 Rise Set
Actual Time 6:56 AM EST 5:30 PM EST
Civil Twilight 6:31 AM EST 5:55 PM EST
Nautical Twilight 6:03 AM EST 6:24 PM EST
Astronomical Twilight 5:34 AM EST 6:52 PM EST
Moon 2:45 AM EST (12/9) 2:21 PM EST (12/9)
Length of Visible Light 11h 23m
Length of Day
10h 33m
Waning Crescent, 19% of the Moon is Illuminated
Dec 9
Waning Crescent
Dec 13
New
Dec 20
First Quarter
Dec 28
Full
Jan 4
Last Quarter

Hourly Weather History & Observations

Time (EST) Temp. Heat Index Dew Point Humidity Pressure Visibility Wind Dir Wind Speed Gust Speed Precip Events Conditions
12:48 AM 73.4 °F - 71.6 °F 94% 30.04 in 8.0 mi Calm Calm - N/A   Mostly Cloudy
12:53 AM 73.9 °F - 72.0 °F 93% 30.04 in 8.0 mi Calm Calm - N/A   Mostly Cloudy
1:01 AM 73.4 °F - 71.6 °F 94% 30.03 in 8.0 mi Calm Calm - N/A   Scattered Clouds
1:39 AM 73.4 °F - 71.6 °F 94% 30.03 in 7.0 mi Calm Calm - N/A   Mostly Cloudy
1:53 AM 73.0 °F - 71.1 °F 93% 30.04 in 8.0 mi Calm Calm - N/A   Mostly Cloudy
2:49 AM 73.4 °F - 71.6 °F 94% 30.03 in 8.0 mi Calm Calm - N/A   Overcast
2:53 AM 73.0 °F - 72.0 °F 96% 30.03 in 8.0 mi Calm Calm - N/A   Overcast
3:11 AM 71.6 °F - 71.6 °F 100% 30.02 in 7.0 mi Calm Calm - N/A   Scattered Clouds
3:33 AM 71.6 °F - 71.6 °F 100% 30.03 in 7.0 mi Calm Calm - 0.00 in   Mostly Cloudy
3:53 AM 73.0 °F - 71.1 °F 93% 30.03 in 7.0 mi Calm Calm - 0.00 in   Mostly Cloudy
4:14 AM 71.6 °F - 71.6 °F 100% 30.03 in 6.0 mi Calm Calm - N/A   Scattered Clouds
4:53 AM 71.1 °F - 70.0 °F 96% 30.04 in 6.0 mi NNW 3.5 mph - N/A   Scattered Clouds
5:10 AM 71.6 °F - 71.6 °F 100% 30.04 in 6.0 mi Calm Calm - N/A   Mostly Cloudy
5:17 AM 71.6 °F - 71.6 °F 100% 30.04 in 5.0 mi Calm Calm - N/A   Mostly Cloudy
5:27 AM 71.6 °F - 71.6 °F 100% 30.04 in 6.0 mi NW 3.5 mph - N/A   Mostly Cloudy
5:36 AM 71.6 °F - 69.8 °F 94% 30.04 in 6.0 mi Calm Calm - N/A   Scattered Clouds
5:53 AM 70.0 °F - 70.0 °F 100% 30.05 in 5.0 mi Calm Calm - N/A   Clear
6:53 AM 70.0 °F - 69.1 °F 97% 30.06 in 5.0 mi Calm Calm - N/A   Clear
7:53 AM 70.0 °F - 69.1 °F 97% 30.08 in 4.0 mi Calm Calm - N/A   Partly Cloudy
8:53 AM 75.9 °F - 73.0 °F 91% 30.10 in 6.0 mi North 3.5 mph - N/A   Mostly Cloudy
9:12 AM 75.2 °F - 73.4 °F 94% 30.10 in 7.0 mi Calm Calm - N/A   Mostly Cloudy
9:23 AM 78.8 °F - 75.2 °F 89% 30.10 in 8.0 mi Calm Calm - N/A   Mostly Cloudy
9:53 AM 79.0 °F - 73.9 °F 84% 30.11 in 8.0 mi Calm Calm - N/A   Partly Cloudy
10:53 AM 80.1 °F 83.8 °F 72.0 °F 76% 30.10 in 9.0 mi East 4.6 mph - N/A   Mostly Cloudy
11:27 AM 80.6 °F 84.6 °F 71.6 °F 74% 30.09 in 9.0 mi Calm Calm - N/A   Overcast
11:50 AM 78.8 °F - 73.4 °F 83% 30.08 in 5.0 mi Calm Calm - 0.02 in   Haze
11:53 AM 80.1 °F 84.2 °F 73.0 °F 79% 30.08 in 5.0 mi Calm Calm - 0.02 in   Haze
12:53 PM 80.1 °F 84.2 °F 73.0 °F 79% 30.05 in 9.0 mi Calm Calm - N/A   Overcast
1:48 PM 84.2 °F 90.9 °F 73.4 °F 70% 30.02 in 10.0 mi ESE 10.4 mph - N/A   Scattered Clouds
1:53 PM 84.0 °F 89.6 °F 72.0 °F 67% 30.02 in 10.0 mi SE 9.2 mph - N/A   Mostly Cloudy
2:53 PM 82.0 °F 86.3 °F 71.1 °F 69% 30.01 in 10.0 mi SSE 8.1 mph - N/A   Clear
3:53 PM 82.9 °F 87.0 °F 70.0 °F 65% 30.01 in 10.0 mi SE 6.9 mph - N/A   Clear
4:53 PM 81.0 °F 84.9 °F 71.1 °F 72% 30.02 in 10.0 mi SSE 6.9 mph - N/A   Clear
5:53 PM 78.1 °F - 73.0 °F 84% 30.04 in 8.0 mi SE 8.1 mph - N/A   Clear
6:53 PM 77.0 °F - 73.0 °F 88% 30.05 in 8.0 mi SE 5.8 mph - N/A   Clear
7:53 PM 75.9 °F - 73.0 °F 91% 30.05 in 7.0 mi SE 3.5 mph - N/A   Clear
8:53 PM 75.9 °F - 73.0 °F 91% 30.06 in 7.0 mi Calm Calm - N/A   Clear
9:53 PM 75.0 °F - 72.0 °F 90% 30.06 in 6.0 mi SSE 3.5 mph - N/A   Clear
10:53 PM 73.9 °F - 72.0 °F 93% 30.06 in 6.0 mi South 3.5 mph - N/A   Clear
11:53 PM 73.9 °F - 72.0 °F 93% 30.05 in 6.0 mi Calm Calm - N/A   Clear